| time (UTC) | temp F | wind direction | speed MPH | gust MPH | rain 1hr in | rain 24hr in | rain mn in | humidity % | barometer mb |
| 20260507145730 | 69 | 4 | 2.0 | 3.0 | 0.00 | 0.00 | 0.00 | 83 | 1017.3 |
| 20260507145226 | 69 | 359 | 2.0 | 4.0 | 0.00 | 0.00 | 0.00 | 83 | 1017.3 |
| 20260507144723 | 69 | 13 | 2.0 | 3.0 | 0.00 | 0.00 | 0.00 | 83 | 1017.1 |
| 20260507144221 | 69 | 53 | 3.0 | 3.0 | 0.00 | 0.00 | 0.00 | 84 | 1017.2 |
| 20260507143717 | 69 | 8 | 2.0 | 2.0 | 0.00 | 0.00 | 0.00 | 84 | 1017.2 |
| 20260507143215 | 69 | 9 | 2.0 | 3.0 | 0.00 | 0.00 | 0.00 | 84 | 1017.2 |
| 20260507142710 | 69 | 9 | 2.0 | 3.0 | 0.00 | 0.00 | 0.00 | 84 | 1016.9 |
| 20260507142207 | 68 | 359 | 2.0 | 3.0 | 0.00 | 0.00 | 0.00 | 85 | 1017.0 |
| 20260507141703 | 68 | 357 | 2.0 | 2.0 | 0.00 | 0.00 | 0.00 | 86 | 1017.2 |
| 20260507141200 | 68 | 349 | 2.0 | 2.0 | 0.00 | 0.00 | 0.00 | 86 | 1017.4 |
| 20260507140657 | 69 | 350 | 1.0 | 3.0 | 0.00 | 0.00 | 0.00 | 86 | 1017.2 |
| 20260507140154 | 69 | 9 | 2.0 | 3.0 | 0.00 | 0.00 | 0.00 | 86 | 1017.3 |
| 20260507135651 | 68 | 348 | 2.0 | 3.0 | 0.00 | 0.00 | 0.00 | 87 | 1017.3 |
| 20260507135149 | 68 | 352 | 2.0 | 3.0 | 0.00 | 0.00 | 0.00 | 87 | 1017.5 |
| 20260507134645 | 68 | 351 | 2.0 | 3.0 | 0.00 | 0.00 | 0.00 | 88 | 1017.4 |
| 20260507134141 | 68 | 356 | 2.0 | 2.0 | 0.00 | 0.00 | 0.00 | 88 | 1017.7 |
| 20260507133637 | 68 | 359 | 1.0 | 2.0 | 0.00 | 0.00 | 0.00 | 89 | 1017.4 |
| 20260507133135 | 68 | 356 | 2.0 | 2.0 | 0.00 | 0.00 | 0.00 | 89 | 1017.5 |
| 20260507132632 | 68 | 358 | 2.0 | 3.0 | 0.00 | 0.00 | 0.00 | 88 | 1017.5 |
| 20260507132127 | 68 | 335 | 2.0 | 2.0 | 0.00 | 0.00 | 0.00 | 89 | 1017.8 |
| 20260507131624 | 68 | 351 | 2.0 | 2.0 | 0.00 | 0.00 | 0.00 | 88 | 1017.5 |
| 20260507131122 | 68 | 346 | 2.0 | 2.0 | 0.00 | 0.00 | 0.00 | 88 | 1017.5 |
| 20260507130619 | 68 | 349 | 2.0 | 2.0 | 0.00 | 0.00 | 0.00 | 88 | 1017.9 |
| 20260507130117 | 69 | 351 | 2.0 | 3.0 | 0.00 | 0.00 | 0.00 | 88 | 1017.7 |
| 20260507125615 | 69 | 358 | 2.0 | 2.0 | 0.00 | 0.00 | 0.00 | 87 | 1018.0 |
| 20260507125112 | 69 | 337 | 2.0 | 3.0 | 0.00 | 0.00 | 0.00 | 86 | 1017.8 |
| 20260507124608 | 69 | 346 | 2.0 | 2.0 | 0.00 | 0.00 | 0.00 | 86 | 1017.9 |
| 20260507124107 | 69 | 349 | 2.0 | 3.0 | 0.00 | 0.00 | 0.00 | 86 | 1017.9 |
| 20260507123604 | 69 | 346 | 2.0 | 2.0 | 0.00 | 0.00 | 0.00 | 86 | 1017.8 |
| 20260507123101 | 69 | 339 | 2.0 | 2.0 | 0.00 | 0.00 | 0.00 | 86 | 1017.9 |
| 20260507122556 | 69 | 321 | 2.0 | 3.0 | 0.00 | 0.00 | 0.00 | 86 | 1018.0 |
| 20260507122052 | 69 | 350 | 2.0 | 4.0 | 0.00 | 0.00 | 0.00 | 86 | 1018.1 |
| 20260507121548 | 69 | 6 | 1.0 | 3.0 | 0.00 | 0.00 | 0.00 | 86 | 1018.0 |
| 20260507121044 | 69 | 352 | 2.0 | 2.0 | 0.00 | 0.00 | 0.00 | 86 | 1018.3 |
| 20260507120540 | 69 | 3 | 2.0 | 2.0 | 0.00 | 0.00 | 0.00 | 86 | 1018.0 |
| 20260507120038 | 69 | 335 | 2.0 | 2.0 | 0.00 | 0.00 | 0.00 | 86 | 1018.2 |
| 20260507115534 | 69 | 322 | 2.0 | 2.0 | 0.00 | 0.00 | 0.00 | 86 | 1018.2 |
| 20260507115030 | 69 | 343 | 3.0 | 3.0 | 0.00 | 0.00 | 0.00 | 86 | 1018.2 |
| 20260507114526 | 69 | 359 | 2.0 | 3.0 | 0.00 | 0.00 | 0.00 | 85 | 1018.4 |
| 20260507114023 | 69 | 356 | 3.0 | 4.0 | 0.00 | 0.00 | 0.00 | 86 | 1018.5 |
| 20260507113520 | 69 | 346 | 1.0 | 4.0 | 0.00 | 0.00 | 0.00 | 86 | 1018.3 |
| 20260507113017 | 69 | 355 | 2.0 | 3.0 | 0.00 | 0.00 | 0.00 | 86 | 1018.4 |
| 20260507112515 | 69 | 2 | 2.0 | 3.0 | 0.00 | 0.00 | 0.00 | 86 | 1018.4 |
| 20260507112011 | 68 | 354 | 2.0 | 3.0 | 0.00 | 0.00 | 0.00 | 86 | 1018.5 |
| 20260507111510 | 68 | 346 | 2.0 | 2.0 | 0.00 | 0.00 | 0.00 | 86 | 1018.5 |
| 20260507111005 | 69 | 355 | 2.0 | 2.0 | 0.00 | 0.00 | 0.00 | 85 | 1018.7 |
| 20260507110502 | 69 | 356 | 2.0 | 3.0 | 0.00 | 0.00 | 0.00 | 85 | 1018.7 |
| 20260507105958 | 69 | 3 | 3.0 | 3.0 | 0.00 | 0.00 | 0.00 | 85 | 1018.5 |
| 20260507105455 | 69 | 335 | 2.0 | 2.0 | 0.00 | 0.00 | 0.00 | 85 | 1018.6 |
| 20260507104951 | 69 | 343 | 2.0 | 3.0 | 0.00 | 0.00 | 0.00 | 84 | 1018.6 |
| 20260507104449 | 69 | 352 | 3.0 | 4.0 | 0.00 | 0.00 | 0.00 | 84 | 1018.6 |
| 20260507103944 | 69 | 345 | 2.0 | 3.0 | 0.00 | 0.00 | 0.00 | 84 | 1018.8 |
| 20260507103441 | 69 | 340 | 2.0 | 2.0 | 0.00 | 0.00 | 0.00 | 83 | 1018.8 |
| 20260507102937 | 69 | 5 | 2.0 | 2.0 | 0.00 | 0.00 | 0.00 | 83 | 1018.6 |
| 20260507102434 | 70 | 350 | 2.0 | 3.0 | 0.00 | 0.00 | 0.00 | 83 | 1018.8 |
| 20260507101931 | 70 | 357 | 2.0 | 2.0 | 0.00 | 0.00 | 0.00 | 82 | 1018.9 |
| 20260507101426 | 70 | 0 | 2.0 | 2.0 | 0.00 | 0.00 | 0.00 | 82 | 1018.8 |
| 20260507100922 | 70 | 350 | 2.0 | 3.0 | 0.00 | 0.00 | 0.00 | 82 | 1018.9 |
| 20260507100420 | 70 | 349 | 2.0 | 3.0 | 0.00 | 0.00 | 0.00 | 82 | 1019.1 |
| 20260507095918 | 70 | 349 | 2.0 | 2.0 | 0.00 | 0.02 | 0.02 | 81 | 1019.2 |
| 20260507095415 | 70 | 350 | 2.0 | 3.0 | 0.00 | 0.02 | 0.02 | 81 | 1019.1 |
| 20260507094912 | 70 | 328 | 1.0 | 2.0 | 0.00 | 0.02 | 0.02 | 81 | 1019.0 |
| 20260507094408 | 70 | 27 | 2.0 | 3.0 | 0.00 | 0.02 | 0.02 | 81 | 1019.2 |
| 20260507093905 | 70 | 16 | 2.0 | 3.0 | 0.00 | 0.02 | 0.02 | 81 | 1019.2 |
| 20260507093404 | 70 | 0 | 2.0 | 2.0 | 0.00 | 0.02 | 0.02 | 81 | 1019.1 |
| 20260507092902 | 70 | 12 | 2.0 | 2.0 | 0.00 | 0.02 | 0.02 | 80 | 1019.1 |
| 20260507092357 | 70 | 359 | 2.0 | 2.0 | 0.00 | 0.02 | 0.02 | 80 | 1019.2 |
| 20260507091854 | 71 | 347 | 2.0 | 3.0 | 0.00 | 0.02 | 0.02 | 80 | 1019.2 |
| 20260507091350 | 71 | 316 | 2.0 | 3.0 | 0.00 | 0.02 | 0.02 | 80 | 1019.4 |
| 20260507090846 | 71 | 356 | 2.0 | 3.0 | 0.00 | 0.02 | 0.02 | 79 | 1019.5 |
| 20260507090343 | 71 | 357 | 2.0 | 3.0 | 0.00 | 0.02 | 0.02 | 79 | 1019.5 |
| 20260507085840 | 71 | 349 | 3.0 | 3.0 | 0.00 | 0.02 | 0.02 | 79 | 1019.4 |
| 20260507085336 | 71 | 336 | 3.0 | 3.0 | 0.00 | 0.02 | 0.02 | 79 | 1019.5 |
| 20260507084834 | 71 | 336 | 2.0 | 4.0 | 0.00 | 0.02 | 0.02 | 79 | 1019.3 |
| 20260507084330 | 71 | 350 | 2.0 | 2.0 | 0.00 | 0.02 | 0.02 | 78 | 1019.4 |
| 20260507083828 | 71 | 354 | 3.0 | 4.0 | 0.00 | 0.02 | 0.02 | 78 | 1019.4 |
| 20260507083324 | 71 | 336 | 1.0 | 4.0 | 0.00 | 0.02 | 0.02 | 77 | 1019.3 |
| 20260507082820 | 71 | 7 | 2.0 | 2.0 | 0.00 | 0.02 | 0.02 | 77 | 1019.4 |
| 20260507082316 | 71 | 12 | 2.0 | 3.0 | 0.00 | 0.02 | 0.02 | 77 | 1019.3 |
| 20260507081814 | 72 | 4 | 2.0 | 3.0 | 0.00 | 0.02 | 0.02 | 76 | 1019.2 |
| 20260507081309 | 72 | 7 | 2.0 | 2.0 | 0.00 | 0.02 | 0.02 | 75 | 1019.2 |
| 20260507080806 | 72 | 25 | 2.0 | 3.0 | 0.00 | 0.02 | 0.02 | 75 | 1019.3 |
| 20260507080302 | 72 | 32 | 3.0 | 3.0 | 0.00 | 0.02 | 0.02 | 75 | 1019.4 |
| 20260507075757 | 72 | 26 | 2.0 | 3.0 | 0.00 | 0.02 | 0.02 | 75 | 1019.1 |
| 20260507075254 | 72 | 18 | 2.0 | 3.0 | 0.00 | 0.02 | 0.02 | 76 | 1019.3 |
| 20260507074750 | 72 | 28 | 3.0 | 3.0 | 0.00 | 0.02 | 0.02 | 76 | 1019.0 |
| 20260507074249 | 72 | 11 | 2.0 | 3.0 | 0.00 | 0.02 | 0.02 | 76 | 1019.2 |
| 20260507073745 | 71 | 350 | 3.0 | 4.0 | 0.00 | 0.02 | 0.02 | 77 | 1019.2 |
| 20260507073241 | 71 | 13 | 2.0 | 4.0 | 0.00 | 0.02 | 0.02 | 77 | 1019.0 |
| 20260507072739 | 71 | 11 | 4.0 | 4.0 | 0.00 | 0.02 | 0.02 | 77 | 1019.2 |
| 20260507072237 | 71 | 0 | 3.0 | 5.0 | 0.00 | 0.02 | 0.02 | 78 | 1019.2 |
| 20260507071734 | 71 | 11 | 2.0 | 3.0 | 0.00 | 0.02 | 0.02 | 79 | 1019.0 |
| 20260507071230 | 71 | 347 | 3.0 | 3.0 | 0.00 | 0.02 | 0.02 | 79 | 1018.8 |
| 20260507070727 | 71 | 358 | 2.0 | 3.0 | 0.00 | 0.02 | 0.02 | 79 | 1019.0 |
| 20260507070224 | 71 | 19 | 2.0 | 5.0 | 0.00 | 0.02 | 0.02 | 80 | 1019.0 |
| 20260507065721 | 71 | 34 | 3.0 | 4.0 | 0.00 | 0.02 | 0.02 | 80 | 1019.0 |
| 20260507065218 | 71 | 356 | 1.0 | 4.0 | 0.00 | 0.02 | 0.02 | 80 | 1018.6 |
| 20260507064715 | 71 | 22 | 2.0 | 3.0 | 0.00 | 0.02 | 0.02 | 80 | 1018.6 |
| 20260507064214 | 71 | 7 | 3.0 | 4.0 | 0.00 | 0.02 | 0.02 | 80 | 1018.6 |
| 20260507063711 | 72 | 15 | 2.0 | 3.0 | 0.00 | 0.02 | 0.02 | 80 | 1018.5 |
| 20260507063207 | 72 | 11 | 3.0 | 4.0 | 0.00 | 0.02 | 0.02 | 80 | 1018.5 |
| 20260507062704 | 72 | 19 | 3.0 | 3.0 | 0.00 | 0.02 | 0.02 | 80 | 1018.5 |
| 20260507062202 | 72 | 26 | 3.0 | 4.0 | 0.00 | 0.02 | 0.02 | 80 | 1018.5 |
| 20260507061700 | 72 | 30 | 3.0 | 4.0 | 0.00 | 0.02 | 0.02 | 80 | 1018.2 |
| 20260507061157 | 72 | 23 | 4.0 | 5.0 | 0.00 | 0.02 | 0.02 | 80 | 1018.4 |
| 20260507060655 | 72 | 338 | 2.0 | 4.0 | 0.00 | 0.02 | 0.02 | 80 | 1018.1 |
| 20260507060151 | 72 | 29 | 2.0 | 5.0 | 0.00 | 0.02 | 0.02 | 80 | 1018.1 |
| 20260507055647 | 72 | 26 | 4.0 | 4.0 | 0.00 | 0.02 | 0.02 | 80 | 1018.0 |
| 20260507055143 | 72 | 39 | 4.0 | 5.0 | 0.00 | 0.02 | 0.02 | 80 | 1018.1 |
| 20260507054639 | 72 | 23 | 4.0 | 5.0 | 0.00 | 0.02 | 0.02 | 79 | 1018.1 |
| 20260507054136 | 72 | 24 | 3.0 | 4.0 | 0.00 | 0.02 | 0.02 | 80 | 1017.8 |
| 20260507053634 | 72 | 9 | 3.0 | 4.0 | 0.00 | 0.02 | 0.02 | 79 | 1017.9 |
| 20260507053132 | 72 | 350 | 3.0 | 4.0 | 0.00 | 0.02 | 0.02 | 79 | 1017.9 |
| 20260507052630 | 72 | 29 | 4.0 | 5.0 | 0.00 | 0.02 | 0.02 | 79 | 1017.9 |
| 20260507052126 | 72 | 31 | 2.0 | 4.0 | 0.00 | 0.02 | 0.02 | 79 | 1017.7 |
| 20260507051624 | 72 | 11 | 2.0 | 3.0 | 0.00 | 0.02 | 0.02 | 79 | 1017.7 |
| 20260507051121 | 72 | 21 | 2.0 | 3.0 | 0.00 | 0.02 | 0.02 | 79 | 1017.7 |
| 20260507050618 | 72 | 40 | 2.0 | 4.0 | 0.00 | 0.02 | 0.02 | 78 | 1017.5 |
| 20260507050114 | 73 | 9 | 2.0 | 3.0 | 0.00 | 0.02 | 0.02 | 78 | 1017.3 |
| 20260507045611 | 73 | 357 | 2.0 | 4.0 | 0.00 | 0.02 | 0.02 | 78 | 1017.5 |
| 20260507045108 | 73 | 52 | 4.0 | 4.0 | 0.00 | 0.02 | 0.02 | 79 | 1017.3 |
| 20260507044604 | 73 | 0 | 2.0 | 3.0 | 0.00 | 0.02 | 0.02 | 79 | 1017.2 |
| 20260507044102 | 73 | 317 | 2.0 | 4.0 | 0.00 | 0.02 | 0.02 | 79 | 1017.2 |
| 20260507043557 | 73 | 45 | 3.0 | 4.0 | 0.00 | 0.02 | 0.02 | 78 | 1017.3 |
| 20260507043055 | 73 | 3 | 3.0 | 4.0 | 0.00 | 0.02 | 0.02 | 79 | 1017.2 |
| 20260507042550 | 73 | 12 | 2.0 | 3.0 | 0.00 | 0.02 | 0.02 | 79 | 1016.9 |
| 20260507042046 | 73 | 13 | 2.0 | 4.0 | 0.00 | 0.02 | 0.02 | 79 | 1017.0 |
| 20260507041543 | 73 | 352 | 2.0 | 3.0 | 0.00 | 0.02 | 0.02 | 79 | 1017.0 |
| 20260507041040 | 73 | 20 | 2.0 | 4.0 | 0.00 | 0.02 | 0.02 | 79 | 1017.0 |
| 20260507040537 | 73 | 19 | 2.0 | 3.0 | 0.00 | 0.02 | 0.02 | 78 | 1017.0 |
| 20260507040033 | 73 | 26 | 2.0 | 4.0 | 0.00 | 0.02 | 0.02 | 78 | 1016.8 |
| 20260507035529 | 73 | 354 | 3.0 | 4.0 | 0.00 | 0.02 | 0.02 | 79 | 1016.8 |
| 20260507035026 | 73 | 32 | 2.0 | 3.0 | 0.00 | 0.02 | 0.02 | 79 | 1016.8 |
| 20260507034522 | 73 | 1 | 2.0 | 4.0 | 0.00 | 0.02 | 0.02 | 79 | 1016.8 |
| 20260507034020 | 74 | 1 | 2.0 | 3.0 | 0.00 | 0.02 | 0.02 | 79 | 1016.8 |
| 20260507033518 | 74 | 24 | 2.0 | 3.0 | 0.00 | 0.02 | 0.02 | 78 | 1016.6 |
| 20260507033015 | 74 | 2 | 3.0 | 3.0 | 0.00 | 0.02 | 0.02 | 79 | 1016.4 |
| 20260507032512 | 74 | 31 | 3.0 | 4.0 | 0.00 | 0.02 | 0.02 | 78 | 1016.4 |
| 20260507032008 | 74 | 19 | 3.0 | 4.0 | 0.00 | 0.02 | 0.02 | 78 | 1016.6 |
| 20260507031504 | 74 | 341 | 2.0 | 4.0 | 0.00 | 0.02 | 0.02 | 78 | 1016.6 |
| 20260507031002 | 74 | 27 | 3.0 | 3.0 | 0.00 | 0.02 | 0.02 | 79 | 1016.4 |
| 20260507030458 | 74 | 342 | 2.0 | 4.0 | 0.00 | 0.02 | 0.02 | 78 | 1016.5 |
| 20260507025955 | 74 | 345 | 2.0 | 5.0 | 0.00 | 0.02 | 0.02 | 78 | 1016.3 |
| 20260507025453 | 74 | 39 | 2.0 | 3.0 | 0.00 | 0.02 | 0.02 | 78 | 1016.4 |
| 20260507024951 | 74 | 15 | 3.0 | 3.0 | 0.00 | 0.02 | 0.02 | 79 | 1016.4 |
| 20260507024448 | 74 | 24 | 2.0 | 4.0 | 0.00 | 0.02 | 0.02 | 78 | 1016.4 |
| 20260507023943 | 74 | 19 | 2.0 | 3.0 | 0.00 | 0.02 | 0.02 | 79 | 1016.3 |
| 20260507023440 | 74 | 345 | 2.0 | 3.0 | 0.00 | 0.02 | 0.02 | 79 | 1016.4 |
| 20260507022938 | 74 | 332 | 2.0 | 4.0 | 0.00 | 0.02 | 0.02 | 79 | 1016.4 |
| 20260507022435 | 75 | 358 | 3.0 | 4.0 | 0.00 | 0.02 | 0.02 | 78 | 1016.4 |
| 20260507021930 | 75 | 327 | 3.0 | 3.0 | 0.00 | 0.02 | 0.02 | 79 | 1016.3 |
| 20260507021425 | 75 | 353 | 2.0 | 3.0 | 0.00 | 0.02 | 0.02 | 79 | 1016.5 |
| 20260507020924 | 75 | 333 | 2.0 | 4.0 | 0.00 | 0.02 | 0.02 | 79 | 1016.5 |
| 20260507020420 | 75 | 352 | 3.0 | 4.0 | 0.00 | 0.02 | 0.02 | 79 | 1016.5 |
| 20260507015917 | 75 | 342 | 2.0 | 3.0 | 0.00 | 0.02 | 0.02 | 79 | 1016.4 |
| 20260507015415 | 75 | 346 | 2.0 | 3.0 | 0.00 | 0.02 | 0.02 | 81 | 1016.4 |
| 20260507014912 | 75 | 344 | 3.0 | 6.0 | 0.00 | 0.02 | 0.02 | 80 | 1016.5 |
| 20260507014408 | 75 | 21 | 4.0 | 5.0 | 0.00 | 0.02 | 0.02 | 80 | 1016.1 |
| 20260507013904 | 75 | 346 | 2.0 | 3.0 | 0.00 | 0.02 | 0.02 | 82 | 1016.3 |
| 20260507013402 | 75 | 352 | 3.0 | 4.0 | 0.00 | 0.02 | 0.02 | 82 | 1016.6 |
| 20260507012859 | 75 | 41 | 2.0 | 4.0 | 0.02 | 0.02 | 0.02 | 83 | 1016.3 |
| 20260507012355 | 74 | 28 | 2.0 | 3.0 | 0.02 | 0.02 | 0.02 | 84 | 1016.3 |
| 20260507011853 | 75 | 25 | 2.0 | 4.0 | 0.00 | 0.02 | 0.02 | 83 | 1016.4 |
| 20260507011349 | 75 | 15 | 2.0 | 3.0 | 0.00 | 0.02 | 0.02 | 84 | 1016.5 |
| 20260507010849 | 75 | 354 | 2.0 | 3.0 | 0.02 | 0.02 | 0.02 | 84 | 1016.4 |
| 20260507010345 | 75 | 5 | 1.0 | 3.0 | 0.07 | 0.02 | 0.02 | 83 | 1016.6 |
| 20260507005842 | 75 | 27 | 2.0 | 4.0 | 0.05 | 0.02 | 0.02 | 81 | 1016.4 |
| 20260507005339 | 76 | 8 | 2.0 | 3.0 | 0.00 | 0.01 | 0.01 | 79 | 1016.5 |
| 20260507004836 | 76 | 6 | 3.0 | 4.0 | 0.00 | 0.01 | 0.01 | 77 | 1016.7 |
| 20260507004333 | 76 | 39 | 3.0 | 3.0 | 0.00 | 0.01 | 0.01 | 78 | 1016.7 |
| 20260507003830 | 76 | 357 | 2.0 | 5.0 | 0.00 | 0.01 | 0.01 | 78 | 1016.6 |
| 20260507003325 | 76 | 15 | 3.0 | 4.0 | 0.00 | 0.01 | 0.01 | 78 | 1016.6 |
| 20260507002820 | 76 | 52 | 3.0 | 7.0 | 0.00 | 0.01 | 0.01 | 77 | 1016.6 |
| 20260507002317 | 76 | 355 | 3.0 | 3.0 | 0.00 | 0.01 | 0.01 | 78 | 1016.8 |
| 20260507001815 | 76 | 36 | 3.0 | 4.0 | 0.00 | 0.01 | 0.01 | 77 | 1016.7 |
| 20260507001312 | 76 | 47 | 3.0 | 5.0 | 0.00 | 0.01 | 0.01 | 77 | 1016.8 |
| 20260507000808 | 76 | 18 | 3.0 | 4.0 | 0.00 | 0.01 | 0.01 | 78 | 1017.0 |
| 20260507000306 | 76 | 59 | 4.0 | 6.0 | 0.00 | 0.01 | 0.01 | 77 | 1017.2 |
| 20260506235800 | 77 | 40 | 3.0 | 5.0 | 0.00 | 0.01 | 0.01 | 76 | 1017.0 |
| 20260506235256 | 77 | 17 | 3.0 | 5.0 | 0.00 | 0.01 | 0.01 | 77 | 1017.2 |
| 20260506234753 | 77 | 62 | 2.0 | 5.0 | 0.00 | 0.01 | 0.01 | 76 | 1017.3 |
| 20260506234250 | 76 | 343 | 4.0 | 4.0 | 0.00 | 0.01 | 0.01 | 79 | 1017.0 |
| 20260506233748 | 76 | 314 | 1.0 | 3.0 | 0.00 | 0.01 | 0.01 | 79 | 1017.2 |
| 20260506233244 | 76 | 50 | 3.0 | 4.0 | 0.00 | 0.01 | 0.01 | 81 | 1017.4 |
| 20260506232742 | 76 | 38 | 3.0 | 4.0 | 0.02 | 0.01 | 0.01 | 81 | 1017.0 |
| 20260506232241 | 75 | 354 | 2.0 | 4.0 | 0.02 | 0.01 | 0.01 | 82 | 1017.0 |
| 20260506231739 | 76 | 30 | 4.0 | 4.0 | 0.02 | 0.00 | 0.00 | 81 | 1017.1 |
| 20260506231237 | 76 | 21 | 2.0 | 5.0 | 0.02 | 0.00 | 0.00 | 81 | 1017.1 |
| 20260506230734 | 76 | 53 | 2.0 | 5.0 | 0.00 | 0.00 | 0.00 | 80 | 1017.2 |
| 20260506230231 | 77 | 31 | 3.0 | 5.0 | 0.00 | 0.00 | 0.00 | 75 | 1017.1 |
| 20260506225727 | 78 | 2 | 3.0 | 4.0 | 0.00 | 0.00 | 0.00 | 74 | 1017.1 |
| 20260506225225 | 77 | 356 | 3.0 | 5.0 | 0.00 | 0.00 | 0.00 | 72 | 1017.0 |
| 20260506224721 | 78 | 95 | 5.0 | 7.0 | 0.00 | 0.00 | 0.00 | 71 | 1017.1 |
| 20260506224218 | 78 | 42 | 2.0 | 6.0 | 0.00 | 0.00 | 0.00 | 71 | 1017.1 |
| 20260506223714 | 79 | 54 | 3.0 | 6.0 | 0.00 | 0.00 | 0.00 | 70 | 1017.0 |
| 20260506223210 | 80 | 57 | 5.0 | 6.0 | 0.00 | 0.00 | 0.00 | 68 | 1017.4 |
| 20260506222707 | 81 | 71 | 3.0 | 4.0 | 0.00 | 0.00 | 0.00 | 66 | 1017.1 |
| 20260506222202 | 83 | 35 | 3.0 | 5.0 | 0.00 | 0.00 | 0.00 | 61 | 1017.3 |
| 20260506221701 | 84 | 0 | 4.0 | 6.0 | 0.00 | 0.00 | 0.00 | 58 | 1017.2 |
| 20260506221159 | 85 | 27 | 2.0 | 3.0 | 0.00 | 0.00 | 0.00 | 58 | 1017.1 |
| 20260506220655 | 86 | 29 | 2.0 | 4.0 | 0.00 | 0.00 | 0.00 | 58 | 1017.5 |
| 20260506220150 | 87 | 51 | 3.0 | 4.0 | 0.00 | 0.00 | 0.00 | 56 | 1017.3 |
| 20260506215647 | 85 | 6 | 2.0 | 4.0 | 0.00 | 0.00 | 0.00 | 58 | 1017.2 |
| 20260506215142 | 84 | 23 | 4.0 | 6.0 | 0.00 | 0.00 | 0.00 | 59 | 1017.2 |
| 20260506214640 | 84 | 300 | 2.0 | 8.0 | 0.00 | 0.00 | 0.00 | 59 | 1017.4 |
| 20260506214137 | 84 | 14 | 3.0 | 5.0 | 0.00 | 0.00 | 0.00 | 59 | 1017.7 |
| 20260506213635 | 83 | 1 | 1.0 | 4.0 | 0.00 | 0.00 | 0.00 | 61 | 1017.7 |
| 20260506213132 | 82 | 340 | 3.0 | 4.0 | 0.00 | 0.00 | 0.00 | 62 | 1017.7 |
| 20260506212630 | 81 | 29 | 3.0 | 5.0 | 0.00 | 0.00 | 0.00 | 64 | 1017.8 |
| 20260506212124 | 81 | 79 | 3.0 | 5.0 | 0.00 | 0.00 | 0.00 | 64 | 1017.9 |
| 20260506211620 | 82 | 87 | 4.0 | 5.0 | 0.00 | 0.00 | 0.00 | 62 | 1017.9 |
| 20260506211117 | 82 | 39 | 4.0 | 4.0 | 0.00 | 0.00 | 0.00 | 62 | 1018.0 |
| 20260506210614 | 82 | 353 | 3.0 | 4.0 | 0.00 | 0.00 | 0.00 | 60 | 1017.8 |
| 20260506210110 | 83 | 14 | 3.0 | 5.0 | 0.00 | 0.00 | 0.00 | 58 | 1018.1 |
| 20260506205607 | 83 | 316 | 3.0 | 4.0 | 0.00 | 0.00 | 0.00 | 59 | 1017.9 |
| 20260506205102 | 83 | 32 | 3.0 | 4.0 | 0.00 | 0.00 | 0.00 | 59 | 1018.0 |
| 20260506204600 | 84 | 6 | 2.0 | 6.0 | 0.00 | 0.00 | 0.00 | 59 | 1018.0 |
| 20260506204057 | 84 | 277 | 4.0 | 6.0 | 0.00 | 0.00 | 0.00 | 59 | 1017.9 |
| 20260506203556 | 84 | 333 | 2.0 | 4.0 | 0.00 | 0.00 | 0.00 | 59 | 1017.9 |
| 20260506203052 | 83 | 12 | 2.0 | 4.0 | 0.00 | 0.00 | 0.00 | 61 | 1017.8 |
| 20260506202549 | 82 | 335 | 2.0 | 4.0 | 0.00 | 0.00 | 0.00 | 64 | 1017.8 |
| 20260506202045 | 80 | 340 | 1.0 | 5.0 | 0.00 | 0.00 | 0.00 | 64 | 1018.0 |
| 20260506201543 | 81 | 342 | 2.0 | 5.0 | 0.00 | 0.00 | 0.00 | 64 | 1017.9 |
| 20260506201040 | 80 | 359 | 3.0 | 3.0 | 0.00 | 0.00 | 0.00 | 65 | 1018.0 |
| 20260506200536 | 82 | 0 | 4.0 | 7.0 | 0.00 | 0.00 | 0.00 | 62 | 1017.9 |
| 20260506200033 | 82 | 9 | 2.0 | 5.0 | 0.00 | 0.00 | 0.00 | 63 | 1017.9 |
| 20260506195530 | 81 | 28 | 3.0 | 6.0 | 0.00 | 0.00 | 0.00 | 63 | 1017.8 |
| 20260506195026 | 81 | 22 | 2.0 | 4.0 | 0.00 | 0.00 | 0.00 | 64 | 1017.9 |
| 20260506194524 | 81 | 318 | 5.0 | 5.0 | 0.00 | 0.00 | 0.00 | 63 | 1017.7 |
| 20260506194020 | 80 | 37 | 2.0 | 4.0 | 0.00 | 0.00 | 0.00 | 65 | 1017.7 |
| 20260506193517 | 80 | 336 | 3.0 | 4.0 | 0.00 | 0.00 | 0.00 | 65 | 1017.9 |
| 20260506193014 | 80 | 0 | 2.0 | 5.0 | 0.00 | 0.00 | 0.00 | 65 | 1017.8 |
| 20260506192511 | 80 | 339 | 3.0 | 3.0 | 0.00 | 0.00 | 0.00 | 66 | 1017.9 |
| 20260506192007 | 79 | 330 | 3.0 | 5.0 | 0.00 | 0.00 | 0.00 | 67 | 1017.7 |
| 20260506191504 | 79 | 325 | 2.0 | 4.0 | 0.00 | 0.00 | 0.00 | 67 | 1017.5 |
| 20260506191000 | 78 | 318 | 1.0 | 5.0 | 0.00 | 0.00 | 0.00 | 67 | 1017.5 |
| 20260506190457 | 78 | 347 | 1.0 | 5.0 | 0.00 | 0.00 | 0.00 | 67 | 1017.5 |
| 20260506185954 | 78 | 23 | 2.0 | 6.0 | 0.00 | 0.00 | 0.00 | 67 | 1017.4 |
| 20260506185451 | 78 | 358 | 3.0 | 5.0 | 0.00 | 0.00 | 0.00 | 66 | 1017.3 |
| 20260506184948 | 79 | 2 | 4.0 | 5.0 | 0.00 | 0.00 | 0.00 | 65 | 1017.2 |
| 20260506184445 | 78 | 5 | 3.0 | 4.0 | 0.00 | 0.00 | 0.00 | 67 | 1017.3 |
| 20260506183942 | 78 | 321 | 2.0 | 4.0 | 0.00 | 0.00 | 0.00 | 67 | 1017.5 |
| 20260506183438 | 78 | 329 | 2.0 | 3.0 | 0.00 | 0.00 | 0.00 | 66 | 1017.4 |
| 20260506182935 | 78 | 321 | 2.0 | 4.0 | 0.00 | 0.00 | 0.00 | 66 | 1017.7 |
| 20260506182432 | 77 | 328 | 2.0 | 4.0 | 0.00 | 0.00 | 0.00 | 66 | 1017.7 |
| 20260506181929 | 77 | 338 | 2.0 | 5.0 | 0.00 | 0.00 | 0.00 | 66 | 1017.3 |
| 20260506181427 | 77 | 2 | 2.0 | 4.0 | 0.00 | 0.00 | 0.00 | 66 | 1017.3 |
| 20260506180924 | 77 | 334 | 2.0 | 4.0 | 0.00 | 0.00 | 0.00 | 65 | 1017.5 |
| 20260506180420 | 76 | 346 | 2.0 | 2.0 | 0.00 | 0.00 | 0.00 | 65 | 1017.2 |
| 20260506175917 | 75 | 324 | 4.0 | 4.0 | 0.00 | 0.00 | 0.00 | 66 | 1017.4 |
| 20260506175414 | 75 | 348 | 3.0 | 5.0 | 0.00 | 0.00 | 0.00 | 65 | 1017.5 |
| 20260506174910 | 75 | 332 | 2.0 | 4.0 | 0.00 | 0.00 | 0.00 | 65 | 1017.5 |
| 20260506174408 | 76 | 1 | 2.0 | 3.0 | 0.00 | 0.00 | 0.00 | 65 | 1017.3 |
| 20260506173905 | 75 | 17 | 0.0 | 2.0 | 0.00 | 0.00 | 0.00 | 65 | 1017.4 |
| 20260506173402 | 75 | 4 | 2.0 | 3.0 | 0.00 | 0.00 | 0.00 | 65 | 1017.5 |
| 20260506172859 | 74 | 358 | 2.0 | 4.0 | 0.00 | 0.00 | 0.00 | 66 | 1017.5 |
| 20260506172355 | 74 | 319 | 2.0 | 3.0 | 0.00 | 0.00 | 0.00 | 67 | 1017.1 |
| 20260506171853 | 73 | 23 | 3.0 | 4.0 | 0.00 | 0.00 | 0.00 | 68 | 1017.2 |
| 20260506171350 | 73 | 12 | 2.0 | 3.0 | 0.00 | 0.00 | 0.00 | 69 | 1017.1 |
| 20260506170848 | 73 | 14 | 2.0 | 3.0 | 0.00 | 0.00 | 0.00 | 69 | 1017.1 |
| 20260506170344 | 72 | 352 | 1.0 | 3.0 | 0.00 | 0.00 | 0.00 | 71 | 1017.0 |
| 20260506165843 | 71 | 35 | 3.0 | 3.0 | 0.00 | 0.00 | 0.00 | 72 | 1016.9 |
| 20260506165341 | 71 | 350 | 2.0 | 3.0 | 0.00 | 0.00 | 0.00 | 72 | 1016.8 |
| 20260506164836 | 70 | 8 | 2.0 | 4.0 | 0.00 | 0.00 | 0.00 | 73 | 1016.8 |
| 20260506164333 | 70 | 36 | 2.0 | 2.0 | 0.00 | 0.00 | 0.00 | 73 | 1016.8 |
| 20260506163831 | 70 | 41 | 2.0 | 3.0 | 0.00 | 0.00 | 0.00 | 74 | 1016.7 |
| 20260506163325 | 69 | 5 | 2.0 | 3.0 | 0.00 | 0.00 | 0.00 | 74 | 1016.7 |
| 20260506162821 | 69 | 15 | 2.0 | 3.0 | 0.00 | 0.00 | 0.00 | 74 | 1016.7 |
| 20260506162320 | 69 | 8 | 2.0 | 2.0 | 0.00 | 0.00 | 0.00 | 73 | 1016.6 |
| 20260506161817 | 69 | 344 | 2.0 | 3.0 | 0.00 | 0.00 | 0.00 | 73 | 1016.6 |
| 20260506161314 | 69 | 335 | 3.0 | 4.0 | 0.00 | 0.00 | 0.00 | 73 | 1016.5 |
| 20260506160811 | 69 | 345 | 2.0 | 3.0 | 0.00 | 0.00 | 0.00 | 72 | 1016.2 |
| 20260506160307 | 69 | 16 | 2.0 | 3.0 | 0.00 | 0.00 | 0.00 | 72 | 1016.0 |
| 20260506155807 | 69 | 7 | 2.0 | 4.0 | 0.00 | 0.00 | 0.00 | 72 | 1016.0 |
| 20260506155305 | 69 | 357 | 2.0 | 3.0 | 0.00 | 0.00 | 0.00 | 74 | 1016.0 |
| 20260506153410 | 68 | 9 | 2.0 | 3.0 | 0.00 | 0.00 | 0.00 | 76 | 1016.2 |
| 20260506152907 | 68 | 18 | 2.0 | 3.0 | 0.00 | 0.00 | 0.00 | 76 | 1015.9 |
| 20260506152404 | 68 | 31 | 2.0 | 3.0 | 0.00 | 0.00 | 0.00 | 76 | 1015.9 |
| 20260506151902 | 68 | 0 | 2.0 | 3.0 | 0.00 | 0.00 | 0.00 | 76 | 1015.9 |
| 20260506151359 | 68 | 3 | 2.0 | 2.0 | 0.00 | 0.00 | 0.00 | 76 | 1015.8 |
| 20260506150857 | 68 | 31 | 3.0 | 3.0 | 0.00 | 0.00 | 0.00 | 75 | 1015.9 |
| 20260506150352 | 68 | 4 | 2.0 | 2.0 | 0.00 | 0.00 | 0.00 | 74 | 1015.8 |